Aguascalientes, Mexico

9:04 AM CST on November 19, 2017 (GMT -0600)
Jesus Teran International

Weather History for MMAS - October, 2013

Change the Weather History Date:

Thursday, October 24, 2013

  Actual Average Record
Temperature  
Mean Temperature 60 °F -  
Max Temperature 77 °F 75 °F 84 °F (2012)
Min Temperature 42 °F 43 °F 33 °F (1999)
Degree Days  
Heating Degree Days 6    
Growing Degree Days 10 (Base 50)    
Moisture  
Dew Point 35 °F    
Average Humidity 43    
Maximum Humidity 78    
Minimum Humidity 11    
Precipitation  
Precipitation 0.00 in - - ()
Sea Level Pressure  
Sea Level Pressure 30.20 in    
Wind  
Wind Speed 5 mph ()    
Max Wind Speed 14 mph    
Max Gust Speed -    
Visibility 9.0 miles    
Events      
Averages and records for this station are not official NWS values.
T = Trace of Precipitation, MM = Missing Value Source: Averaged Metar Reports

Daily Weather History Graph

Daily Weather History Graph

Search for Another Location

Airport or City:

Trip Planner

Search our weather history database for the weather conditions in past years. The results will help you decide how hot, cold, wet, or windy it might be!

Date:

Astronomy

Oct. 24, 2013 Rise Set
Actual Time 7:49 AM CDT 7:17 PM CDT
Civil Twilight 7:26 AM CDT 7:40 PM CDT
Nautical Twilight 7:00 AM CDT 8:06 PM CDT
Astronomical Twilight 6:34 AM CDT 8:32 PM CDT
Moon 11:57 PM CDT (10/24) 12:36 PM CDT (10/24)
Length of Visible Light 12h 13m
Length of Day
11h 28m
Waning Gibbous, 71% of the Moon is Illuminated
Oct 24
Waning Gibbous
Oct 26
Last Quarter
Nov 3
New
Nov 9
First Quarter
Nov 17
Full

Hourly Weather History & Observations

Time (CDT) Temp. Windchill Dew Point Humidity Pressure Visibility Wind Dir Wind Speed Gust Speed Precip Events Conditions
12:40 AM 54 °F - 43 °F 55% 29.95 in 1 mi Calm Calm - -  
3:50 AM 49 °F - 41 °F 66% 30.02 in 1 mi Calm Calm - -  
5:45 AM 44.6 °F 39.7 °F 37.4 °F 76% 30.29 in 8.0 mi North 9.2 mph - N/A   Clear
6:47 AM 44.6 °F 39.7 °F 37.4 °F 76% 30.09 in 8.0 mi NNE 9.2 mph - N/A   Clear
6:50 AM 45 °F - 40 °F 78% 30.10 in 1 mi Calm Calm - -  
7:40 AM 42.8 °F 38.0 °F 35.6 °F 76% 30.31 in 9.0 mi North 8.1 mph - N/A   Clear
8:41 AM 46.4 °F 41.9 °F 35.6 °F 66% 30.33 in 10.0 mi NNE 9.2 mph - N/A   Clear
9:42 AM 51.8 °F - 33.8 °F 50% 30.34 in 10.0 mi NNE 10.4 mph - N/A   Clear
9:50 AM 49 °F - 42 °F 70% 30.14 in 1 mi Calm Calm - -  
10:49 AM 60.8 °F - 33.8 °F 36% 30.36 in 10.0 mi North 6.9 mph - N/A   Clear
11:41 AM 66.2 °F - 33.8 °F 30% 30.35 in 10.0 mi ENE 3.5 mph - N/A   Clear
12:40 PM 73 °F - 30 °F 11% 30.13 in 19 mi North 2.2 mph - -  
12:44 PM 69.8 °F - 30.2 °F 23% 30.04 in 10.0 mi ESE 9.2 mph - N/A   Clear
1:40 PM 71.6 °F - 30.2 °F 22% 30.28 in 10.0 mi ENE 11.5 mph - N/A   Clear
2:40 PM 73.4 °F - 37.4 °F 27% 30.24 in 10.0 mi NE 5.8 mph - N/A   Clear
3:40 PM 75.2 °F - 32.0 °F 21% 30.22 in 10.0 mi NE 13.8 mph - N/A   Clear
3:50 PM 77 °F - 33 °F 11% 29.95 in 19 mi North 2.2 mph - -  
4:41 PM 75.2 °F - 37.4 °F 25% 30.21 in 10.0 mi NE 13.8 mph - N/A   Clear
5:42 PM 73.4 °F - 28.4 °F 19% 30.21 in 10.0 mi NE 11.5 mph - N/A   Partly Cloudy
6:41 PM 69.8 °F - 28.4 °F 21% 29.98 in 10.0 mi NE 6.9 mph - N/A   Partly Cloudy
7:40 PM 62.6 °F - 33.8 °F 34% 30.26 in 10.0 mi NE 8.1 mph - N/A   Partly Cloudy
8:40 PM 60.8 °F - 37.4 °F 42% 30.30 in 10.0 mi ENE 11.5 mph - N/A   Clear
9:41 PM 57.2 °F - 35.6 °F 44% 30.33 in 10.0 mi NE 13.8 mph - N/A   Clear
10:40 PM 57.2 °F - 37.4 °F 48% 30.32 in 10.0 mi ENE 12.7 mph - N/A   Clear